| time (UTC) | temp F | wind direction | speed knots | gust knots | rain 1hr in | rain 24hr in | rain mn in | humidity % | barometer mb |
| 20260505052418 | 50 | 155 | 1.7 | 1.7 | 0.00 | 0.05 | 0.05 | 89 | 1010.5 |
| 20260505051916 | 50 | 143 | 1.7 | 2.6 | 0.00 | 0.05 | 0.05 | 89 | 1010.4 |
| 20260505051413 | 50 | 164 | 1.7 | 1.7 | 0.00 | 0.05 | 0.05 | 88 | 1010.6 |
| 20260505050911 | 50 | 209 | 0.0 | 0.0 | 0.00 | 0.05 | 0.05 | 88 | 1010.9 |
| 20260505050409 | 49 | 214 | 3.5 | 4.3 | 0.00 | 0.05 | 0.05 | 89 | 1010.6 |
| 20260505041336 | 50 | 233 | 6.1 | 7.8 | 0.00 | 0.05 | 0.05 | 88 | 1010.3 |
| 20260505040833 | 50 | 221 | 5.2 | 6.1 | 0.00 | 0.05 | 0.05 | 88 | 1010.3 |
| 20260505040331 | 50 | 198 | 4.3 | 6.1 | 0.00 | 0.05 | 0.05 | 88 | 1010.2 |
| 20260505035827 | 51 | 180 | 2.6 | 2.6 | 0.00 | 0.05 | 0.05 | 87 | 1010.2 |
| 20260505035323 | 51 | 148 | 3.5 | 4.3 | 0.00 | 0.05 | 0.05 | 86 | 1010.2 |
| 20260505034821 | 51 | 140 | 2.6 | 2.6 | 0.00 | 0.05 | 0.05 | 86 | 1010.4 |
| 20260505034317 | 51 | 152 | 3.5 | 4.3 | 0.00 | 0.05 | 0.05 | 86 | 1010.3 |
| 20260505033814 | 51 | 162 | 2.6 | 2.6 | 0.00 | 0.05 | 0.05 | 87 | 1010.2 |
| 20260505033311 | 51 | 133 | 0.9 | 1.7 | 0.00 | 0.05 | 0.05 | 86 | 1010.3 |
| 20260505032810 | 52 | 201 | 1.7 | 2.6 | 0.00 | 0.05 | 0.05 | 86 | 1010.3 |
| 20260505032305 | 52 | 227 | 1.7 | 2.6 | 0.00 | 0.05 | 0.05 | 86 | 1010.1 |
| 20260505031803 | 52 | 238 | 2.6 | 2.6 | 0.00 | 0.05 | 0.05 | 86 | 1010.4 |
| 20260505031259 | 52 | 249 | 4.3 | 4.3 | 0.00 | 0.05 | 0.05 | 84 | 1010.1 |
| 20260505030756 | 51 | 310 | 3.5 | 4.3 | 0.00 | 0.05 | 0.05 | 87 | 1009.7 |
| 20260505030252 | 51 | 34 | 0.0 | 1.7 | 0.00 | 0.05 | 0.05 | 88 | 1009.8 |
| 20260505025748 | 52 | 42 | 0.9 | 1.7 | 0.00 | 0.05 | 0.05 | 88 | 1009.5 |
| 20260505025246 | 51 | 51 | 0.0 | 0.0 | 0.00 | 0.05 | 0.05 | 87 | 1009.1 |
| 20260505024744 | 51 | 52 | 1.7 | 1.7 | 0.00 | 0.05 | 0.05 | 87 | 1009.3 |
| 20260505024241 | 51 | 57 | 0.0 | 1.7 | 0.00 | 0.05 | 0.05 | 88 | 1009.4 |
| 20260505023738 | 51 | 64 | 0.0 | 0.0 | 0.00 | 0.05 | 0.05 | 88 | 1009.3 |
| 20260505023235 | 51 | 65 | 0.0 | 0.0 | 0.00 | 0.05 | 0.05 | 88 | 1009.0 |
| 20260505022733 | 51 | 80 | 0.0 | 0.0 | 0.00 | 0.05 | 0.05 | 87 | 1009.4 |
| 20260505022230 | 51 | 161 | 0.0 | 0.0 | 0.00 | 0.05 | 0.05 | 85 | 1008.9 |
| 20260505021726 | 51 | 180 | 0.9 | 1.7 | 0.00 | 0.05 | 0.05 | 85 | 1009.4 |
| 20260505021223 | 52 | 233 | 0.9 | 1.7 | 0.00 | 0.05 | 0.05 | 86 | 1009.5 |
| 20260505020719 | 52 | 234 | 0.9 | 1.7 | 0.00 | 0.05 | 0.05 | 86 | 1009.4 |
| 20260505020214 | 52 | 291 | 2.6 | 2.6 | 0.00 | 0.05 | 0.05 | 86 | 1009.6 |
| 20260505015712 | 52 | 296 | 2.6 | 2.6 | 0.05 | 0.05 | 0.05 | 85 | 1009.5 |
| 20260505015209 | 52 | 295 | 0.0 | 0.0 | 0.12 | 0.05 | 0.05 | 84 | 1009.0 |
| 20260505014706 | 53 | 282 | 2.6 | 2.6 | 0.12 | 0.04 | 0.04 | 82 | 1009.1 |
| 20260505014203 | 54 | 316 | 4.3 | 6.1 | 0.05 | 0.03 | 0.03 | 78 | 1009.4 |
| 20260505013700 | 55 | 283 | 6.1 | 10.4 | 0.00 | 0.02 | 0.02 | 74 | 1009.3 |
| 20260505013157 | 55 | 277 | 6.1 | 7.8 | 0.00 | 0.02 | 0.02 | 69 | 1009.3 |
| 20260505012655 | 56 | 312 | 1.7 | 1.7 | 0.00 | 0.02 | 0.02 | 66 | 1009.3 |
| 20260505012147 | 57 | 291 | 3.5 | 7.8 | 0.00 | 0.02 | 0.02 | 62 | 1009.3 |
| 20260505011642 | 57 | 280 | 5.2 | 7.8 | 0.00 | 0.02 | 0.02 | 61 | 1009.0 |
| 20260505011139 | 57 | 276 | 8.7 | 10.4 | 0.00 | 0.02 | 0.02 | 61 | 1009.0 |
| 20260505010639 | 57 | 315 | 5.2 | 6.1 | 0.00 | 0.02 | 0.02 | 60 | 1009.0 |
| 20260505010136 | 58 | 335 | 6.1 | 10.4 | 0.00 | 0.02 | 0.02 | 57 | 1008.8 |
| 20260505005632 | 58 | 307 | 4.3 | 10.4 | 0.00 | 0.02 | 0.02 | 59 | 1008.4 |
| 20260505005129 | 58 | 325 | 2.6 | 2.6 | 0.00 | 0.02 | 0.02 | 61 | 1008.2 |
| 20260505004627 | 58 | 328 | 0.9 | 1.7 | 0.00 | 0.02 | 0.02 | 61 | 1008.4 |
| 20260505004123 | 58 | 307 | 0.9 | 2.6 | 0.00 | 0.02 | 0.02 | 60 | 1008.2 |
| 20260505003621 | 58 | 295 | 1.7 | 2.6 | 0.00 | 0.02 | 0.02 | 58 | 1008.4 |
| 20260505003118 | 58 | 250 | 1.7 | 1.7 | 0.00 | 0.02 | 0.02 | 60 | 1008.4 |
| 20260505002614 | 58 | 280 | 0.0 | 1.7 | 0.00 | 0.02 | 0.02 | 63 | 1008.4 |
| 20260505002112 | 57 | 60 | 0.0 | 0.0 | 0.00 | 0.02 | 0.02 | 67 | 1008.4 |
| 20260505001609 | 57 | 74 | 0.0 | 0.0 | 0.00 | 0.02 | 0.02 | 65 | 1008.6 |
| 20260505001107 | 57 | 67 | 0.0 | 0.0 | 0.00 | 0.02 | 0.02 | 68 | 1008.3 |
| 20260505000603 | 57 | 117 | 0.0 | 0.0 | 0.00 | 0.02 | 0.02 | 70 | 1008.6 |
| 20260504235557 | 57 | 134 | 1.7 | 2.6 | 0.00 | 0.02 | 0.02 | 65 | 1008.7 |
| 20260504235054 | 55 | 45 | 0.9 | 2.6 | 0.07 | 0.02 | 0.02 | 61 | 1008.6 |
| 20260504234551 | 55 | 151 | 4.3 | 8.7 | 0.14 | 0.02 | 0.02 | 74 | 1008.7 |
| 20260504234049 | 55 | 167 | 2.6 | 2.6 | 0.07 | 0.01 | 0.01 | 65 | 1008.9 |
| 20260504233544 | 58 | 179 | 8.7 | 8.7 | 0.00 | 0.00 | 0.00 | 67 | 1008.7 |
| 20260504233041 | 59 | 233 | 11.3 | 13.0 | 0.00 | 0.00 | 0.00 | 54 | 1008.9 |
| 20260504232538 | 59 | 166 | 7.0 | 8.7 | 0.00 | 0.00 | 0.00 | 51 | 1008.3 |
| 20260504232036 | 60 | 175 | 13.9 | 20.9 | 0.00 | 0.00 | 0.00 | 50 | 1008.2 |
| 20260504231532 | 64 | 211 | 14.8 | 18.2 | 0.00 | 0.00 | 0.00 | 40 | 1007.8 |
| 20260504231028 | 64 | 263 | 4.3 | 7.8 | 0.00 | 0.00 | 0.00 | 37 | 1007.4 |
| 20260504230524 | 65 | 255 | 0.0 | 0.0 | 0.00 | 0.00 | 0.00 | 36 | 1007.4 |
| 20260504230023 | 65 | 276 | 0.0 | 0.0 | 0.00 | 0.00 | 0.00 | 36 | 1007.1 |
| 20260504225520 | 65 | 282 | 2.6 | 4.3 | 0.00 | 0.00 | 0.00 | 36 | 1007.1 |
| 20260504225017 | 65 | 340 | 7.0 | 7.8 | 0.00 | 0.00 | 0.00 | 35 | 1007.0 |
| 20260504224514 | 66 | 348 | 10.4 | 12.2 | 0.00 | 0.00 | 0.00 | 35 | 1007.0 |
| 20260504224011 | 66 | 294 | 4.3 | 4.3 | 0.00 | 0.00 | 0.00 | 35 | 1007.2 |
| 20260504223507 | 66 | 341 | 4.3 | 7.8 | 0.00 | 0.00 | 0.00 | 34 | 1007.1 |
| 20260504223003 | 66 | 297 | 5.2 | 7.8 | 0.00 | 0.00 | 0.00 | 35 | 1007.1 |
| 20260504222500 | 66 | 305 | 6.1 | 8.7 | 0.00 | 0.00 | 0.00 | 34 | 1007.1 |
| 20260504221958 | 66 | 323 | 6.1 | 7.8 | 0.00 | 0.00 | 0.00 | 35 | 1006.6 |
| 20260504221455 | 66 | 316 | 7.8 | 10.4 | 0.00 | 0.00 | 0.00 | 34 | 1007.0 |
| 20260504220952 | 66 | 303 | 0.0 | 0.0 | 0.00 | 0.00 | 0.00 | 35 | 1006.8 |
| 20260504220448 | 66 | 312 | 5.2 | 8.7 | 0.00 | 0.00 | 0.00 | 35 | 1007.2 |
| 20260504215945 | 66 | 265 | 8.7 | 10.4 | 0.00 | 0.00 | 0.00 | 36 | 1007.5 |
| 20260504215442 | 65 | 291 | 6.1 | 6.1 | 0.00 | 0.00 | 0.00 | 36 | 1007.3 |
| 20260504214938 | 65 | 297 | 7.0 | 10.4 | 0.00 | 0.00 | 0.00 | 36 | 1007.5 |
| 20260504214435 | 65 | 271 | 10.4 | 14.8 | 0.00 | 0.00 | 0.00 | 36 | 1007.6 |
| 20260504213932 | 65 | 313 | 10.4 | 14.8 | 0.00 | 0.00 | 0.00 | 36 | 1007.5 |
| 20260504213427 | 65 | 275 | 10.4 | 13.0 | 0.00 | 0.00 | 0.00 | 36 | 1007.9 |
| 20260504212925 | 65 | 312 | 12.2 | 14.8 | 0.00 | 0.00 | 0.00 | 35 | 1007.5 |
| 20260504212421 | 66 | 321 | 10.4 | 18.2 | 0.00 | 0.00 | 0.00 | 33 | 1007.8 |
| 20260504211919 | 66 | 309 | 14.8 | 18.2 | 0.00 | 0.00 | 0.00 | 33 | 1007.6 |
| 20260504211415 | 66 | 295 | 8.7 | 12.2 | 0.00 | 0.00 | 0.00 | 32 | 1007.8 |
| 20260504210912 | 66 | 281 | 7.0 | 10.4 | 0.00 | 0.00 | 0.00 | 32 | 1007.6 |
| 20260504210409 | 67 | 3 | 9.6 | 12.2 | 0.00 | 0.00 | 0.00 | 31 | 1007.4 |
| 20260504205906 | 67 | 211 | 13.9 | 23.5 | 0.00 | 0.00 | 0.00 | 31 | 1007.3 |
| 20260504205404 | 67 | 295 | 3.5 | 7.8 | 0.00 | 0.00 | 0.00 | 32 | 1007.3 |
| 20260504204902 | 68 | 271 | 14.8 | 19.1 | 0.00 | 0.00 | 0.00 | 32 | 1007.2 |
| 20260504204400 | 69 | 288 | 17.4 | 22.6 | 0.00 | 0.00 | 0.00 | 31 | 1007.1 |
| 20260504203859 | 70 | 331 | 15.6 | 22.6 | 0.00 | 0.00 | 0.00 | 30 | 1006.8 |
| 20260504203356 | 69 | 328 | 20.9 | 31.3 | 0.00 | 0.00 | 0.00 | 29 | 1007.1 |
| 20260504202852 | 69 | 311 | 24.3 | 31.3 | 0.00 | 0.00 | 0.00 | 29 | 1007.0 |
| 20260504202349 | 70 | 309 | 18.2 | 27.8 | 0.00 | 0.00 | 0.00 | 29 | 1006.6 |
| 20260504201845 | 70 | 339 | 16.5 | 23.5 | 0.00 | 0.00 | 0.00 | 29 | 1007.0 |
| 20260504201343 | 70 | 291 | 22.6 | 31.3 | 0.00 | 0.00 | 0.00 | 28 | 1007.1 |
| 20260504200840 | 70 | 309 | 14.8 | 20.9 | 0.00 | 0.00 | 0.00 | 27 | 1006.8 |
| 20260504200337 | 69 | 270 | 7.8 | 10.4 | 0.00 | 0.00 | 0.00 | 28 | 1006.7 |
| 20260504195833 | 69 | 345 | 14.8 | 23.5 | 0.00 | 0.00 | 0.00 | 29 | 1007.0 |
| 20260504195329 | 69 | 29 | 21.7 | 27.8 | 0.00 | 0.00 | 0.00 | 29 | 1006.8 |
| 20260504194826 | 71 | 309 | 20.0 | 25.2 | 0.00 | 0.00 | 0.00 | 27 | 1006.8 |
| 20260504194322 | 72 | 280 | 10.4 | 16.5 | 0.00 | 0.00 | 0.00 | 24 | 1006.5 |
| 20260504193818 | 71 | 323 | 14.8 | 23.5 | 0.00 | 0.00 | 0.00 | 24 | 1006.4 |
| 20260504193315 | 73 | 329 | 13.9 | 19.1 | 0.00 | 0.00 | 0.00 | 24 | 1006.5 |
| 20260504192814 | 73 | 282 | 6.1 | 8.7 | 0.00 | 0.00 | 0.00 | 24 | 1006.4 |
| 20260504192312 | 73 | 283 | 4.3 | 7.8 | 0.00 | 0.00 | 0.00 | 23 | 1006.4 |
| 20260504191810 | 73 | 307 | 16.5 | 23.5 | 0.00 | 0.00 | 0.00 | 24 | 1006.0 |
| 20260504191307 | 73 | 257 | 16.5 | 19.1 | 0.00 | 0.00 | 0.00 | 25 | 1006.2 |
| 20260504190802 | 73 | 262 | 13.0 | 18.2 | 0.00 | 0.00 | 0.00 | 24 | 1006.2 |
| 20260504190259 | 73 | 292 | 16.5 | 23.5 | 0.00 | 0.00 | 0.00 | 24 | 1006.3 |
| 20260504185755 | 74 | 256 | 14.8 | 18.2 | 0.00 | 0.00 | 0.00 | 24 | 1006.3 |
| 20260504185252 | 74 | 272 | 8.7 | 12.2 | 0.00 | 0.00 | 0.00 | 23 | 1006.3 |
| 20260504184748 | 73 | 235 | 12.2 | 14.8 | 0.00 | 0.00 | 0.00 | 24 | 1006.0 |
| 20260504184244 | 73 | 236 | 13.9 | 18.2 | 0.00 | 0.00 | 0.00 | 24 | 1005.9 |
| 20260504183740 | 73 | 244 | 12.2 | 14.8 | 0.00 | 0.00 | 0.00 | 24 | 1006.3 |
| 20260504183237 | 72 | 243 | 14.8 | 16.5 | 0.00 | 0.00 | 0.00 | 25 | 1006.5 |
| 20260504182735 | 72 | 231 | 13.9 | 22.6 | 0.00 | 0.00 | 0.00 | 24 | 1006.5 |
| 20260504182232 | 72 | 242 | 13.9 | 18.2 | 0.00 | 0.00 | 0.00 | 24 | 1006.3 |
| 20260504181730 | 72 | 256 | 14.8 | 19.1 | 0.00 | 0.00 | 0.00 | 24 | 1006.5 |
| 20260504181227 | 72 | 282 | 13.0 | 16.5 | 0.00 | 0.00 | 0.00 | 25 | 1006.5 |
| 20260504180726 | 72 | 179 | 2.6 | 4.3 | 0.00 | 0.00 | 0.00 | 24 | 1006.5 |
| 20260504180224 | 71 | 257 | 9.6 | 12.2 | 0.00 | 0.00 | 0.00 | 25 | 1006.6 |
| 20260504175722 | 72 | 234 | 12.2 | 16.5 | 0.00 | 0.00 | 0.00 | 25 | 1006.6 |
| 20260504175218 | 73 | 236 | 10.4 | 13.0 | 0.00 | 0.00 | 0.00 | 24 | 1006.7 |
| 20260504174716 | 72 | 209 | 15.6 | 20.9 | 0.00 | 0.00 | 0.00 | 24 | 1006.7 |
| 20260504174214 | 72 | 242 | 11.3 | 18.2 | 0.00 | 0.00 | 0.00 | 24 | 1006.7 |
| 20260504173710 | 72 | 244 | 17.4 | 20.9 | 0.00 | 0.00 | 0.00 | 24 | 1007.1 |
| 20260504173207 | 71 | 252 | 15.6 | 20.9 | 0.00 | 0.00 | 0.00 | 24 | 1006.7 |
| 20260504172704 | 72 | 214 | 18.2 | 20.9 | 0.00 | 0.00 | 0.00 | 24 | 1006.8 |
| 20260504172200 | 71 | 236 | 18.2 | 20.9 | 0.00 | 0.00 | 0.00 | 24 | 1007.2 |
| 20260504171657 | 71 | 264 | 13.9 | 16.5 | 0.00 | 0.00 | 0.00 | 24 | 1007.0 |
| 20260504171154 | 71 | 240 | 13.0 | 14.8 | 0.00 | 0.00 | 0.00 | 25 | 1007.1 |
| 20260504170650 | 71 | 256 | 16.5 | 20.9 | 0.00 | 0.00 | 0.00 | 24 | 1007.1 |
| 20260504170148 | 71 | 216 | 15.6 | 18.2 | 0.00 | 0.00 | 0.00 | 24 | 1007.0 |
| 20260504151033 | 62 | 218 | 7.0 | 8.7 | 0.00 | 0.00 | 0.00 | 33 | 1008.0 |
| 20260504150531 | 62 | 189 | 4.3 | 6.1 | 0.00 | 0.00 | 0.00 | 34 | 1007.8 |
| 20260504140957 | 51 | 231 | 2.6 | 2.6 | 0.00 | 0.00 | 0.00 | 42 | 1008.1 |
| 20260504140453 | 50 | 211 | 2.6 | 2.6 | 0.00 | 0.00 | 0.00 | 43 | 1008.7 |
| 20260504130418 | 44 | 265 | 2.6 | 2.6 | 0.00 | 0.00 | 0.00 | 51 | 1008.4 |
| 20260504110305 | 41 | 234 | 2.6 | 2.6 | 0.00 | 0.00 | 0.00 | 60 | 1008.4 |
| 20260504100223 | 43 | 219 | 3.5 | 4.3 | 0.00 | 0.00 | 0.00 | 59 | 1008.6 |
| 20260504081616 | 50 | 286 | 3.5 | 4.3 | 0.00 | 0.00 | 0.00 | 49 | 1009.3 |
| 20260504081112 | 50 | 306 | 2.6 | 4.3 | 0.00 | 0.00 | 0.00 | 49 | 1009.4 |
| 20260504080609 | 50 | 298 | 2.6 | 2.6 | 0.00 | 0.00 | 0.00 | 49 | 1009.4 |
| 20260504080105 | 51 | 294 | 3.5 | 4.3 | 0.00 | 0.00 | 0.00 | 49 | 1009.4 |